| time (UTC) | temp F | wind direction | speed MPH | gust MPH | rain 1hr in | rain 24hr in | rain mn in | humidity % | barometer mb |
| 20260505034528 | 57 | 330 | 2.0 | 8.0 | 0.00 | 0.00 | 0.00 | 71 | 1000.3 |
| 20260505033027 | 58 | 332 | 2.0 | 6.0 | 0.00 | 0.00 | 0.00 | 75 | 1000.3 |
| 20260505031526 | 59 | 350 | 3.0 | 9.0 | 0.00 | 0.00 | 0.00 | 78 | 1000.1 |
| 20260505030041 | 59 | 297 | 3.0 | 9.0 | 0.00 | 0.00 | 0.00 | 80 | 1000.2 |
| 20260505024524 | 59 | 318 | 2.0 | 4.0 | 0.00 | 0.00 | 0.00 | 87 | 999.6 |
| 20260505023025 | 60 | 326 | 1.0 | 4.0 | 0.00 | 0.00 | 0.00 | 86 | 999.3 |
| 20260505021523 | 60 | 292 | 2.0 | 4.0 | 0.00 | 0.00 | 0.00 | 82 | 999.4 |
| 20260505020021 | 61 | 289 | 2.0 | 7.0 | 0.00 | 0.00 | 0.00 | 82 | 998.9 |
| 20260505014523 | 62 | 259 | 3.0 | 13.0 | 0.00 | 0.00 | 0.00 | 78 | 998.4 |
| 20260505013122 | 63 | 294 | 8.0 | 13.0 | 0.00 | 0.00 | 0.00 | 72 | 998.7 |
| 20260505011519 | 64 | 314 | 1.0 | 5.0 | 0.00 | 0.00 | 0.00 | 69 | 998.3 |
| 20260505010018 | 67 | 311 | 2.0 | 10.0 | 0.00 | 0.00 | 0.00 | 59 | 998.3 |
| 20260505004530 | 70 | 194 | 3.0 | 16.0 | 0.00 | 0.00 | 0.00 | 48 | 997.4 |
| 20260505003017 | 74 | 240 | 5.0 | 12.0 | 0.00 | 0.00 | 0.00 | 50 | 997.0 |
| 20260505001516 | 74 | 213 | 5.0 | 11.0 | 0.00 | 0.00 | 0.00 | 50 | 996.6 |
| 20260505000017 | 75 | 232 | 7.0 | 12.0 | 0.00 | 0.00 | 0.00 | 49 | 996.2 |
| 20260504234518 | 75 | 209 | 7.0 | 11.0 | 0.00 | 0.00 | 0.00 | 49 | 996.5 |
| 20260504233020 | 77 | 229 | 9.0 | 18.0 | 0.00 | 0.00 | 0.00 | 46 | 996.7 |
| 20260504231512 | 79 | 190 | 13.0 | 20.0 | 0.00 | 0.00 | 0.00 | 45 | 996.6 |
| 20260504230012 | 79 | 211 | 12.0 | 23.0 | 0.00 | 0.00 | 0.00 | 44 | 996.3 |
| 20260504224509 | 79 | 185 | 14.0 | 22.0 | 0.00 | 0.00 | 0.00 | 44 | 996.4 |
| 20260504223008 | 79 | 182 | 10.0 | 18.0 | 0.00 | 0.00 | 0.00 | 44 | 996.6 |
| 20260504221506 | 79 | 194 | 9.0 | 18.0 | 0.00 | 0.00 | 0.00 | 44 | 996.6 |
| 20260504220006 | 79 | 213 | 13.0 | 21.0 | 0.00 | 0.00 | 0.00 | 42 | 996.7 |
| 20260504214503 | 79 | 216 | 10.0 | 23.0 | 0.00 | 0.00 | 0.00 | 42 | 997.0 |
| 20260504213004 | 79 | 197 | 11.0 | 19.0 | 0.00 | 0.00 | 0.00 | 43 | 997.1 |
| 20260504211558 | 79 | 216 | 10.0 | 20.0 | 0.00 | 0.00 | 0.00 | 40 | 997.2 |
| 20260504210057 | 78 | 198 | 12.0 | 18.0 | 0.00 | 0.00 | 0.00 | 41 | 997.5 |
| 20260504204555 | 79 | 219 | 11.0 | 19.0 | 0.00 | 0.00 | 0.00 | 44 | 997.7 |
| 20260504203052 | 78 | 205 | 11.0 | 16.0 | 0.00 | 0.00 | 0.00 | 43 | 997.9 |
| 20260504201553 | 79 | 219 | 11.0 | 24.0 | 0.00 | 0.00 | 0.00 | 42 | 998.0 |
| 20260504200048 | 78 | 214 | 9.0 | 17.0 | 0.00 | 0.00 | 0.00 | 43 | 998.1 |
| 20260504194553 | 78 | 220 | 12.0 | 21.0 | 0.00 | 0.00 | 0.00 | 43 | 998.2 |
| 20260504193048 | 77 | 225 | 10.0 | 17.0 | 0.00 | 0.00 | 0.00 | 46 | 998.2 |
| 20260504191608 | 77 | 201 | 9.0 | 17.0 | 0.00 | 0.00 | 0.00 | 45 | 998.3 |
| 20260504190041 | 76 | 205 | 11.0 | 21.0 | 0.00 | 0.00 | 0.00 | 46 | 998.4 |
| 20260504184550 | 76 | 221 | 11.0 | 19.0 | 0.00 | 0.00 | 0.00 | 45 | 998.5 |
| 20260504183038 | 77 | 219 | 10.0 | 23.0 | 0.00 | 0.00 | 0.00 | 46 | 998.5 |
| 20260504181535 | 76 | 230 | 10.0 | 20.0 | 0.00 | 0.00 | 0.00 | 45 | 998.6 |
| 20260504180036 | 75 | 211 | 10.0 | 21.0 | 0.00 | 0.00 | 0.00 | 47 | 998.6 |
| 20260504174533 | 75 | 229 | 13.0 | 22.0 | 0.00 | 0.00 | 0.00 | 48 | 998.6 |
| 20260504173030 | 75 | 204 | 10.0 | 24.0 | 0.00 | 0.00 | 0.00 | 49 | 998.7 |
| 20260504171528 | 74 | 216 | 10.0 | 18.0 | 0.00 | 0.00 | 0.00 | 50 | 999.1 |
| 20260504140105 | 66 | 185 | 8.0 | 12.0 | 0.00 | 0.00 | 0.00 | 63 | 1000.8 |
| 20260504081505 | 54 | 207 | 4.0 | 8.0 | 0.00 | 0.00 | 0.00 | 68 | 1003.3 |
| 20260504044535 | 59 | 232 | 2.0 | 4.0 | 0.00 | 0.00 | 0.00 | 62 | 1005.0 |
| 20260504043037 | 58 | 218 | 3.0 | 6.0 | 0.00 | 0.00 | 0.00 | 64 | 1005.1 |
| 20260504041530 | 58 | 204 | 4.0 | 7.0 | 0.00 | 0.00 | 0.00 | 65 | 1005.2 |
| 20260504040029 | 59 | 200 | 4.0 | 7.0 | 0.00 | 0.00 | 0.00 | 64 | 1005.4 |